Lexington Weather

Lexington, Massachusetts, USA

45°F
5/12/2021 3:41am 
  • Lexington Conditions: Clear
  • Temperature: 44.8°F / 7.1°CColder 1.2°F than last hour.
  • Dew Point: 32.2°FIncreased 0.9°Fsince last hour.
  • Relative Humidity: 61%Increased 5.0% since last hour.
  • Wind: Wind from WSW WSW 1 mph, 10-min avg: 1 mph, gust: 7 mph
  • Barometer: 29.91 in Steady
  • Visibility: 10 miles
  • Rain Today: 0.00 in
  •   

Regional Weather Roundup
for Boston / Norton, MA

        
000
ASUS41 KBOX 110804
RWRBOX

REGIONAL WEATHER ROUNDUP
NATIONAL WEATHER SERVICE BOSTON/NORTON MA
400 AM EDT TUE MAY 11 2021

NOTE:  "FAIR" INDICATES FEW OR NO CLOUDS BELOW 12,000 FEET WITH NO 
SIGNIFICANT WEATHER AND/OR OBSTRUCTIONS TO VISIBILITY.

MAZALL-110900-
EASTERN MASSACHUSETTS
  
CITY           SKY/WX    TMP DP  RH WIND       PRES   REMARKS
BOSTON         MOCLDY    55  41  59 W12       29.91R                  
BEVERLY        MOCLDY    53  42  66 W7        29.89R                  
LAWRENCE       MOCLDY    52  41  66 W7        29.92R                  
BEDFORD        MOCLDY    49  42  77 W7        29.90S                  
BLUE HILL        N/A     47  42  83 W10       29.90R                  
NORWOOD        MOCLDY    50  43  77 W5        29.92R                  
MARSHFIELD     MOCLDY    50  48  93 VRB6      29.90R                  
PLYMOUTH       PTCLDY    48  44  86 W7        29.90S                  
TAUNTON        MOCLDY    48  44  86 W5        29.92R                  
NEW BEDFORD    PTCLDY    49  45  86 NW6       29.91R                  
$$

MAZALL-110900-
CAPE COD AND THE ISLANDS
  
CITY           SKY/WX    TMP DP  RH WIND       PRES   REMARKS
FALMOUTH       CLEAR     46  46 100 MISG      29.91R                  
HYANNIS        CLEAR     51  44  77 CALM      29.89R                  
CHATHAM        CLEAR     49  44  83 W5        29.91R                  
PROVINCETOWN   PTCLDY    49  47  93 W9        29.90S                  
NANTUCKET      CLEAR     47  47 100 W5        29.91R                  
MARTHAS VNYRD  CLEAR     49  46  90 W7        29.91R                  
$$
 
MAZALL-110900-
CENTRAL AND WESTERN MASSACHUSETTS
  
CITY           SKY/WX    TMP DP  RH WIND       PRES   REMARKS
WORCESTER      MOCLDY    49  33  54 W20       29.91S                  
FITCHBURG      MOCLDY    46  43  89 CALM      29.93R                  
ORANGE         MOCLDY    49  34  56 W5        29.95R                  
SPRINGFIELD    MOCLDY    50  33  52 NW10G20   29.95R                  
WESTFIELD      MOCLDY    50  35  56 NW13G18   29.96R                  
NORTH ADAMS    MOCLDY    45  34  65 W7        29.97R                  
PITTSFIELD     MOCLDY    42  33  70 W7        29.96R                  
$$
 
RIZALL-110900-
RHODE ISLAND
  
CITY           SKY/WX    TMP DP  RH WIND       PRES   REMARKS
PROVIDENCE     MOCLDY    50  43  77 W5        29.94R                  
NEWPORT        PTCLDY    50  42  74 NW6       29.93R                  
BLOCK ISLAND   PTCLDY    48  44  86 W10       29.95S                  
SMITHFIELD     MOCLDY    49  40  71 W6        29.94R                  
WESTERLY       PTCLDY    47  41  80 CALM      29.95R                  
$$
 
CTZALL-110900-
CONNECTICUT
  
CITY           SKY/WX    TMP DP  RH WIND       PRES   REMARKS
BRADLEY INTL   MOCLDY    51  34  52 NW8       29.97R                  
HARTFORD       PTCLDY    52  35  52 W5        29.98R                  
BRIDGEPORT     PTCLDY    49  40  71 NW8       29.99S                  
DANBURY        MOCLDY    44  39  82 CALM      30.01R                  
GROTON         PTCLDY    48  42  80 NW7       29.95S                  
NEW HAVEN      PTCLDY    51  43  74 NW6       29.98S                  
CHESTER        FAIR      48  39  71 NW8       29.97S                  
MERIDEN        PTCLDY    42  40  92 CALM      29.99R                  
WILLIMANTIC    PTCLDY    50  36  58 NW5       29.97R                  
OXFORD         PTCLDY    42  42 100 CALM      29.99S                  
$$

MEZ002-015-021-024-NHZ003-005-008-011-012-014-VTZ005-008-110900-
NORTHERN NEW ENGLAND
  
CITY           SKY/WX    TMP DP  RH WIND       PRES   REMARKS
PORTLAND ME    CLOUDY    51  45  79 SW5       29.84S                  
BANGOR ME      CLOUDY    48  43  82 S7        29.83S                  
CONCORD NH     CLOUDY    49  40  71 W6        29.90S                  
MANCHESTER NH  CLOUDY    53  36  52 W9        29.89S                  
NASHUA NH      MOCLDY    51  41  68 W5        29.92R                  
PORTSMOUTH NH  CLOUDY    53  40  62 W5        29.89R                  
JAFFREY NH     MOCLDY    47  36  65 VRB3      29.92R                  
KEENE NH       MOCLDY    42  41  96 S5        29.94R                  
BURLINGTON VT  PTCLDY    43  39  86 S6        29.90S                  
MT. WASHINGTON HAIL      27  27 100 W14         N/A  VSB 1/16WCI  15  
$$

NYZ052-076-110900-
EASTERN NEW YORK
  
CITY           SKY/WX    TMP DP  RH WIND       PRES   REMARKS
ALBANY         MOCLDY    42  34  73 W8        29.99S                  
NEW YORK CITY  PTCLDY    53  41  63 NW6       30.00R                  
$$
 
ANZALL-110900-
MARINE OBSERVATIONS
  
STATION/POSITION TIME  TEMP    WIND        PRES    VSBY  WAVE
                       AIR SEA DIR/SP/G                  HT/PER
                 (UTC) (F)     (DEG/KT/KT) (MB)    (MI)  (FT/S)
BOSTON BUOY      0750   51 48  260/ 12/ 14 1012.2R         2/10
BUZZARDS BAY     0700          300/ 10/ 11 1013.9F
NANTUCKET SOUND  0750      52                N/A           1/ 3
MASS BAY-STELLWA 0704   51     250/  8/  8 1010.7F  1 7/8  1/ 3
ISLE OF SHOALS   0700   54     280/ 14/ 14 1010.7R
S OF BLOCK IS    0756      50                N/A           6/ 8
$$

......................KEY.........................
  SKY/WX - SKY CONDITION/PRESENT WEATHER
  TMP    - TEMPERATURE IN FAHRENHEIT
  DWPT   - DEWPOINT IN FAHRENHEIT
  RH     - RELATIVE HUMIDITY IN PERCENT
  WIND   - DIRECTION AND SPEED IN MPH
  PRES   - MEAN SEA LEVEL PRESSURE IN INCHES OF HG
  WCI    - WIND CHILL INDEX
  VSB    - VISIBILITY IN MILES
  HX     - HEAT INDEX
  TC     - TEMPERATURE IN CELSIUS
  VRB    - VARIABLE WIND DIRECTION
  N/A    - NOT AVAILABLE
  
      

Other recent Regional Weather Roundups

Wed May 12, 3:04am

Wed May 12, 2:04am

Wed May 12, 1:04am

Wed May 12, 12:05am

Tue May 11, 11:05pm

Tue May 11, 10:04pm

Tue May 11, 9:05pm

Tue May 11, 8:05pm

Tue May 11, 7:04pm

Tue May 11, 6:04pm

Tue May 11, 5:04pm

Tue May 11, 4:05pm

Tue May 11, 3:04pm

Tue May 11, 2:05pm

Tue May 11, 1:04pm

Tue May 11, 12:05pm

Tue May 11, 11:05am

Tue May 11, 10:04am

Tue May 11, 9:04am

Tue May 11, 8:04am

Tue May 11, 7:05am

Tue May 11, 6:04am

Tue May 11, 5:04am

Tue May 11, 3:04am

Tue May 11, 2:04am

Tue May 11, 1:04am

Tue May 11, 12:04am

Mon May 10, 11:04pm

Mon May 10, 10:04pm

Mon May 10, 9:05pm

Mon May 10, 8:04pm

Mon May 10, 7:05pm

Mon May 10, 6:04pm

Mon May 10, 5:04pm

Mon May 10, 4:04pm

Mon May 10, 3:04pm

Mon May 10, 2:04pm

Mon May 10, 1:04pm

Mon May 10, 12:04pm

Mon May 10, 11:05am

Mon May 10, 10:04am

Mon May 10, 9:04am

Mon May 10, 8:04am

Mon May 10, 7:04am

Mon May 10, 6:04am

Mon May 10, 5:05am

Mon May 10, 4:04am

Mon May 10, 3:04am

Mon May 10, 2:04am

Mon May 10, 1:04am

Mon May 10, 12:04am

Sun May 9, 11:04pm

Sun May 9, 10:04pm

Sun May 9, 9:04pm

Sun May 9, 8:04pm

Sun May 9, 7:05pm

Sun May 9, 6:04pm

Sun May 9, 5:04pm

Sun May 9, 4:04pm

Sun May 9, 3:04pm

Sun May 9, 2:04pm

Sun May 9, 1:05pm

Sun May 9, 12:04pm

Sun May 9, 11:05am

Sun May 9, 10:04am

Sun May 9, 9:04am

Sun May 9, 8:04am

Sun May 9, 7:04am

Sun May 9, 6:04am

Sun May 9, 5:04am

Sun May 9, 4:04am

Sun May 9, 3:04am

Sun May 9, 2:04am

Sun May 9, 1:05am

Sun May 9, 12:04am

Sat May 8, 11:05pm

Sat May 8, 10:04pm

Sat May 8, 9:05pm

Sat May 8, 8:04pm

Sat May 8, 7:04pm

Sat May 8, 6:04pm

Sat May 8, 5:05pm

Sat May 8, 4:04pm

Sat May 8, 3:05pm

Sat May 8, 2:05pm

Sat May 8, 1:05pm

Sat May 8, 12:04pm

Sat May 8, 11:05am

Sat May 8, 10:04am

Sat May 8, 9:04am

Sat May 8, 8:04am

Sat May 8, 7:04am

Sat May 8, 6:04am

Sat May 8, 5:04am

Sat May 8, 4:04am

Sat May 8, 3:04am

Sat May 8, 2:04am

Sat May 8, 1:05am

Sat May 8, 12:04am

Fri May 7, 11:04pm

Fri May 7, 10:05pm

Fri May 7, 9:04pm

Fri May 7, 8:04pm

Fri May 7, 7:05pm

Fri May 7, 6:04pm

Fri May 7, 5:05pm

Fri May 7, 4:04pm

Fri May 7, 3:04pm

Fri May 7, 2:05pm

Fri May 7, 1:04pm

Fri May 7, 12:04pm

Fri May 7, 11:05am

Fri May 7, 10:04am

Fri May 7, 9:04am

Fri May 7, 8:05am

Fri May 7, 7:04am

Fri May 7, 6:04am

Fri May 7, 5:04am

Fri May 7, 4:04am

Fri May 7, 3:04am

Fri May 7, 2:05am

Fri May 7, 1:04am

Fri May 7, 12:05am

Thu May 6, 11:04pm

Thu May 6, 10:04pm

Thu May 6, 9:05pm

Thu May 6, 8:04pm

Thu May 6, 7:04pm

Thu May 6, 6:04pm

Thu May 6, 5:05pm

Thu May 6, 4:04pm

Thu May 6, 3:04pm

Thu May 6, 2:05pm

Thu May 6, 1:04pm

Thu May 6, 12:04pm

Thu May 6, 11:04am

Thu May 6, 10:04am

Thu May 6, 9:04am

Thu May 6, 8:04am

Thu May 6, 7:04am

Thu May 6, 6:04am

Thu May 6, 5:04am

Thu May 6, 4:04am

Thu May 6, 3:04am

Thu May 6, 2:05am

Thu May 6, 1:04am

Thu May 6, 12:05am

Wed May 5, 11:04pm

Wed May 5, 10:04pm

Wed May 5, 9:05pm

Wed May 5, 8:04pm

Wed May 5, 7:05pm

Wed May 5, 6:04pm

Wed May 5, 5:04pm

Wed May 5, 4:04pm

Wed May 5, 3:04pm

Wed May 5, 2:05pm

Wed May 5, 1:05pm

Wed May 5, 12:04pm

Wed May 5, 11:05am

Wed May 5, 10:04am

Wed May 5, 9:04am

Wed May 5, 8:04am

Wed May 5, 7:04am

Wed May 5, 6:05am

Wed May 5, 5:04am

Wed May 5, 4:04am

Meta data:

ID: 9835c46a-9a06-4e60-a4f6-ccd3f581ae0a
Link: https://api.weather.gov/products/9835c46a-9a06-4e60-a4f6-ccd3f581ae0a